View from above orbital plane
|
View from above satellite
|
Ground track
|
The orbit data is extracted from the following two-line orbital elements,
1 40043U 14033AK 22136.75035319 .00001313 00000-0 19769-3 0 9992
2 40043 97.6573 327.7219 0057863 258.9584 100.5114 14.74931821424957
Epoch (UTC): | 16 May 2022 18:00:30 |
Eccentricity: | 0.0057863 |
inclination: | 97.6573° |
perigee height: | 605 km |
apogee height: | 686 km |
right ascension of ascending node: | 327.7219° |
argument of perigee: | 258.9584° |
revolutions per day: | 14.74931821 |
mean anomaly at epoch: | 100.5114° |
orbit number at epoch: | 42495 |
The dashed part of the orbit path shows where the satellite is in the earth's shadow,
|
|